Keene, NH

9:20 PM EDT on April 22, 2018 (GMT -0400)
Dillant-Hopkins

Weather History for KEEN - December, 2011

Change the Weather History Date:

Thursday, December 8, 2011

  Actual Average Record
Temperature  
Mean Temperature 34 °F -  
Max Temperature 39 °F 37 °F 60 °F (1951)
Min Temperature 28 °F 19 °F -8 °F (1989)
Degree Days  
Heating Degree Days 32    
Moisture  
Dew Point 27 °F    
Average Humidity 75    
Maximum Humidity 93    
Minimum Humidity 52    
Precipitation  
Precipitation 0.55 in - - ()
Sea Level Pressure  
Sea Level Pressure 29.86 in    
Wind  
Wind Speed 9 mph (NW)    
Max Wind Speed 18 mph    
Max Gust Speed 30 mph    
Visibility 9 miles    
Events      
Averages and records for this station are not official NWS values.
T = Trace of Precipitation, MM = Missing Value Source: NWS Daily Summary

Daily Weather History Graph

Daily Weather History Graph

Search for Another Location

Airport or City:

Astronomy

Dec. 08, 2011 Rise Set
Actual Time 7:07 AM EST 4:14 PM EST
Civil Twilight 6:34 AM EST 4:46 PM EST
Nautical Twilight 5:59 AM EST 5:22 PM EST
Astronomical Twilight 5:25 AM EST 5:56 PM EST
Moon 2:52 PM EST (12/8) 5:15 AM EST (12/8)
Length of Visible Light 10h 11m
Length of Day
9h 07m
Waxing Gibbous, 97% of the Moon is Illuminated
Dec 8
Waxing Gibbous
Dec 10
Full
Dec 17
Last Quarter
Dec 24
New
Jan 1
First Quarter

Hourly Weather History & Observations

Time (EST) Temp. Windchill Dew Point Humidity Pressure Visibility Wind Dir Wind Speed Gust Speed Precip Events Conditions
12:15 AM 39.2 °F 30.5 °F 35.6 °F 87% 29.51 in 7.0 mi North 16.1 mph 19.6 mph 0.10 in   Overcast
12:35 AM 39.2 °F 33.0 °F 35.6 °F 87% 29.50 in 9.0 mi North 9.2 mph - 0.15 in   Overcast
12:55 AM 37.4 °F 28.9 °F 33.8 °F 87% 29.49 in 10.0 mi North 13.8 mph 18.4 mph 0.23 in   Overcast
1:35 AM 37.4 °F 30.8 °F 33.8 °F 87% 29.48 in 10.0 mi North 9.2 mph - 0.15 in   Overcast
1:55 AM 35.6 °F 28.0 °F 33.8 °F 93% 29.47 in 7.0 mi North 10.4 mph - 0.21 in   Overcast
2:15 AM 33.8 °F 28.6 °F 30.2 °F 87% 29.46 in 2.5 mi NNE 5.8 mph - 0.01 in   Overcast
2:35 AM 33.8 °F 29.6 °F 30.2 °F 87% 29.48 in 1.5 mi NNW 4.6 mph - 0.01 in   Overcast
3:15 AM 33.8 °F 27.0 °F 32.0 °F 93% 29.51 in 7.0 mi NNW 8.1 mph - N/A   Overcast
3:35 AM 33.8 °F 25.8 °F 30.2 °F 87% 29.54 in 3.0 mi NNW 10.4 mph 17.3 mph N/A   Overcast
3:55 AM 33.8 °F 25.8 °F 30.2 °F 87% 29.54 in 2.0 mi NNW 10.4 mph 21.9 mph N/A   Overcast
4:15 AM 33.8 °F 25.3 °F 30.2 °F 87% 29.55 in 2.5 mi NNW 11.5 mph 26.5 mph N/A   Overcast
4:35 AM 33.8 °F 25.8 °F 30.2 °F 87% 29.56 in 3.0 mi NNW 10.4 mph - N/A   Overcast
4:55 AM 33.8 °F 25.8 °F 30.2 °F 87% 29.56 in 6.0 mi NNW 10.4 mph 17.3 mph 0.09 in   Overcast
5:15 AM 33.8 °F 23.9 °F 26.6 °F 75% 29.59 in 10.0 mi NNW 15.0 mph 23.0 mph N/A   Scattered Clouds
5:35 AM 33.8 °F 22.8 °F 26.6 °F 75% 29.60 in 10.0 mi NW 18.4 mph 29.9 mph N/A   Mostly Cloudy
5:56 AM 32.0 °F 20.8 °F 24.8 °F 75% 29.62 in 10.0 mi NNW 17.3 mph 27.6 mph N/A   Overcast
6:35 AM 32.0 °F 24.2 °F 24.8 °F 75% 29.69 in 10.0 mi NW 9.2 mph 19.6 mph N/A   Overcast
6:55 AM 32.0 °F 24.8 °F 26.6 °F 80% 29.71 in 10.0 mi NW 8.1 mph 18.4 mph N/A   Overcast
7:15 AM 32.0 °F 24.8 °F 24.8 °F 75% 29.73 in 10.0 mi NW 8.1 mph - N/A   Overcast
7:35 AM 32.0 °F 24.8 °F 23.0 °F 69% 29.75 in 10.0 mi WNW 8.1 mph - N/A   Mostly Cloudy
8:15 AM 32.0 °F 27.5 °F 23.0 °F 69% 29.79 in 10.0 mi West 4.6 mph - N/A   Scattered Clouds
8:35 AM 32.0 °F 23.6 °F 24.8 °F 75% 29.81 in 10.0 mi WNW 10.4 mph 19.6 mph N/A   Clear
9:35 AM 33.8 °F 28.6 °F 24.8 °F 70% 29.88 in 10.0 mi NW 5.8 mph - N/A   Clear
9:55 AM 33.8 °F 26.4 °F 24.8 °F 70% 29.89 in 10.0 mi WNW 9.2 mph - N/A   Clear
10:15 AM 35.6 °F 29.2 °F 24.8 °F 65% 29.91 in 10.0 mi WNW 8.1 mph - N/A   Clear
10:35 AM 35.6 °F - 26.6 °F 70% 29.91 in 10.0 mi Calm Calm - N/A   Clear
10:55 AM 35.6 °F 32.8 °F 26.6 °F 70% 29.92 in 10.0 mi WSW 3.5 mph - 0.01 in   Partly Cloudy
11:15 AM 35.6 °F 31.7 °F 26.6 °F 70% 29.92 in 10.0 mi West 4.6 mph - N/A   Partly Cloudy
11:35 AM 37.4 °F 32.8 °F 26.6 °F 65% 29.92 in 10.0 mi West 5.8 mph - N/A   Mostly Cloudy
11:55 AM 37.4 °F 30.8 °F 26.6 °F 65% 29.92 in 10.0 mi West 9.2 mph - N/A   Mostly Cloudy
12:35 PM 37.4 °F 32.1 °F 28.4 °F 70% 29.93 in 10.0 mi West 6.9 mph - N/A   Overcast
12:55 PM 37.4 °F 32.1 °F 28.4 °F 70% 29.93 in 10.0 mi NW 6.9 mph - N/A   Mostly Cloudy
1:15 PM 37.4 °F 30.8 °F 24.8 °F 60% 29.94 in 10.0 mi NNW 9.2 mph 17.3 mph N/A   Mostly Cloudy
1:35 PM 37.4 °F 30.8 °F 24.8 °F 60% 29.95 in 10.0 mi NW 9.2 mph - N/A   Scattered Clouds
1:55 PM 37.4 °F 32.8 °F 24.8 °F 60% 29.96 in 10.0 mi NW 5.8 mph - N/A   Clear
2:15 PM 37.4 °F 28.9 °F 21.2 °F 52% 29.96 in 10.0 mi WNW 13.8 mph 23.0 mph N/A   Clear
2:35 PM 37.4 °F 30.8 °F 21.2 °F 52% 30.01 in 10.0 mi WNW 9.2 mph - N/A   Clear
2:55 PM 37.4 °F 30.3 °F 21.2 °F 52% 30.03 in 10.0 mi NW 10.4 mph 17.3 mph N/A   Clear
3:35 PM 37.4 °F 31.4 °F 23.0 °F 56% 30.07 in 10.0 mi West 8.1 mph 18.4 mph N/A   Partly Cloudy
3:55 PM 37.4 °F 32.1 °F 24.8 °F 60% 30.07 in 10.0 mi WNW 6.9 mph - N/A   Clear
4:15 PM 35.6 °F 31.7 °F 21.2 °F 56% 30.07 in 10.0 mi WSW 4.6 mph - N/A   Clear
4:35 PM 35.6 °F - 23.0 °F 60% 30.08 in 10.0 mi Calm Calm - N/A   Clear
4:55 PM 33.8 °F - 26.6 °F 75% 30.10 in 10.0 mi Calm Calm - N/A   Clear
5:15 PM 32.0 °F 27.5 °F 24.8 °F 75% 30.11 in 10.0 mi SSW 4.6 mph - N/A   Clear
5:35 PM 32.0 °F 25.6 °F 24.8 °F 75% 30.12 in 10.0 mi South 6.9 mph - N/A   Clear
6:35 PM 33.8 °F 29.6 °F 24.8 °F 70% 30.16 in 10.0 mi SSE 4.6 mph - N/A   Clear
6:55 PM 32.0 °F 28.7 °F 26.6 °F 80% 30.17 in 10.0 mi SSE 3.5 mph - N/A   Clear
7:15 PM 32.0 °F - 26.6 °F 80% 30.19 in 10.0 mi Calm Calm - N/A   Clear
7:35 PM 32.0 °F - 24.8 °F 75% 30.19 in 10.0 mi Calm Calm - N/A   Clear
7:55 PM 30.2 °F - 26.6 °F 86% 30.20 in 10.0 mi Calm Calm - N/A   Clear
8:35 PM 28.4 °F - 26.6 °F 93% 30.21 in 10.0 mi Calm Calm - N/A   Clear
8:55 PM 28.4 °F 24.6 °F 26.6 °F 93% 30.22 in 10.0 mi South 3.5 mph - N/A   Clear
9:15 PM 30.2 °F 26.7 °F 24.8 °F 80% 30.21 in 10.0 mi South 3.5 mph - N/A   Clear
9:55 PM 30.2 °F 25.4 °F 26.6 °F 86% 30.22 in 10.0 mi SSW 4.6 mph - N/A   Clear
10:15 PM 30.2 °F 24.3 °F 24.8 °F 80% 30.23 in 10.0 mi SW 5.8 mph - N/A   Clear
10:35 PM 30.2 °F 26.7 °F 24.8 °F 80% 30.23 in 10.0 mi SSW 3.5 mph - N/A   Clear
10:55 PM 30.2 °F 25.4 °F 24.8 °F 80% 30.23 in 10.0 mi South 4.6 mph - N/A   Clear
11:15 PM 30.2 °F 26.7 °F 24.8 °F 80% 30.23 in 10.0 mi South 3.5 mph - N/A   Clear
11:35 PM 30.2 °F 26.7 °F 24.8 °F 80% 30.24 in 10.0 mi SSW 3.5 mph - N/A   Clear
11:55 PM 30.2 °F 22.6 °F 23.0 °F 75% 30.25 in 10.0 mi South 8.1 mph - N/A   Clear